Location: Milton Keynes
(52.0316°N, 0.7531°W)
Time: 02:15:56
(UTC+00:00)

Genesis I - Pass Details

Date: 28 January 2019
Orbit: 476 x 550 km, 64.5° (Epoch: 15 February)

Event Time Altitude Azimuth Distance (km) Brightness Sun altitude
Exits shadow 05:22:37 36° 356° (N) 887 4.3 -22.4°
Drops below altitude 10° 05:25:40 10° 35° (NE) 1,837 6.4 -22.0°
Sets 05:27:59 0° 42° (NE) 2,734 7.5 -21.6°
